EW6492 Weather Reports


time (UTC)temp
C
wind
direction
speed
KPH
gust
KPH
rain 1hr
cm
rain 24hr
cm
rain mn
cm
humidity
%
barometer
mb
20260903011521 30 289 0.0 0.0 0.00 0.00 0.00 68 963.2
20260903010019 30 289 0.0 0.0 0.00 0.00 0.00 67 963.0
20260903004527 31 289 0.0 0.0 0.00 0.00 0.00 66 962.9
20260903003019 31 289 0.0 1.6 0.00 0.00 0.00 63 962.8
20260903001516 31 289 0.0 1.6 0.00 0.00 0.00 63 962.7
20260903000016 32 282 0.0 3.2 0.00 0.00 0.00 61 962.8
20260902234516 32 259 0.0 1.6 0.00 0.00 0.00 59 962.8
20260902233022 33 259 0.0 3.2 0.00 0.00 0.00 56 962.8
20260902231514 33 248 0.0 9.7 0.00 0.00 0.00 55 962.8
20260902230014 33 236 0.0 3.2 0.00 0.00 0.00 53 962.9
20260902224513 34 243 0.0 11.3 0.00 0.00 0.00 53 962.9
20260902223012 34 246 0.0 12.9 0.00 0.00 0.00 53 962.9
20260902221516 34 242 0.0 11.3 0.00 0.00 0.00 52 962.9
20260902220010 35 173 3.2 12.9 0.00 0.00 0.00 51 962.9
20260902214513 35 241 1.6 11.3 0.00 0.00 0.00 51 963.0
20260902213009 35 228 0.0 6.4 0.00 0.00 0.00 50 963.0
20260902211508 36 232 1.6 11.3 0.00 0.00 0.00 48 963.0
20260902210007 36 325 0.0 8.0 0.00 0.00 0.00 48 963.1
20260902204506 36 246 1.6 12.9 0.00 0.00 0.00 48 963.2
20260902203007 36 232 3.2 16.1 0.00 0.00 0.00 47 963.3
20260902201509 36 344 1.6 12.9 0.00 0.00 0.00 48 963.4
20260902200003 36 320 0.0 6.4 0.00 0.00 0.00 49 963.4
20260902194502 36 319 0.0 8.0 0.00 0.00 0.00 46 963.6
20260902193104 36 193 1.6 14.5 0.00 0.00 0.00 48 963.8
20260902191607 36 266 1.6 11.3 0.00 0.00 0.00 47 963.9
20260902190055 36 236 0.0 8.0 0.00 0.00 0.00 48 964.1
20260902184557 35 252 0.0 8.0 0.00 0.00 0.00 49 964.2
20260902183059 35 224 1.6 11.3 0.00 0.00 0.00 49 964.3
20260902181553 35 253 1.6 11.3 0.00 0.00 0.00 51 964.4
20260902180052 35 348 1.6 16.1 0.00 0.00 0.00 49 964.5
20260902174600 35 76 0.0 8.0 0.00 0.00 0.00 51 964.7
20260902173049 35 240 1.6 8.0 0.00 0.00 0.00 51 964.9
20260902171550 35 244 0.0 6.4 0.00 0.00 0.00 50 964.9
20260902170047 35 257 3.2 14.5 0.00 0.00 0.00 51 965.1
20260902164548 35 334 3.2 12.9 0.00 0.00 0.00 52 965.2
20260902163043 35 182 0.0 8.0 0.00 0.00 0.00 54 965.2
20260902161541 33 222 0.0 6.4 0.00 0.00 0.00 56 965.3
20260902160047 33 317 0.0 6.4 0.00 0.00 0.00 59 965.4
20260902154540 33 295 1.6 8.0 0.00 0.00 0.00 58 965.5
20260902153034 32 188 1.6 9.7 0.00 0.00 0.00 61 965.6
20260902151530 32 238 0.0 8.0 0.00 0.00 0.00 63 965.7
20260902150027 32 263 0.0 4.8 0.00 0.00 0.00 65 965.7
20260902144524 31 355 0.0 8.0 0.00 0.00 0.00 68 965.6
20260902143020 30 281 0.0 3.2 0.00 0.00 0.00 70 965.6
20260902141516 30 311 0.0 3.2 0.00 0.00 0.00 72 965.6
20260902140012 28 339 0.0 8.0 0.00 0.00 0.00 76 965.7
20260902134508 27 184 0.0 3.2 0.00 0.00 0.00 82 965.8
20260902133005 27 160 0.0 1.6 0.00 0.00 0.00 84 965.7
20260902131503 26 160 0.0 3.2 0.00 0.00 0.00 87 965.8
20260902130002 25 161 0.0 3.2 0.00 0.00 0.00 90 965.8
20260902124502 23 166 0.0 3.2 0.00 0.00 0.00 94 965.7
20260902123105 23 249 0.0 1.6 0.00 0.00 0.00 95 965.7
20260902121558 23 249 0.0 0.0 0.00 0.00 0.00 96 965.6
20260902120058 22 249 0.0 0.0 0.00 0.00 0.00 96 965.6
20260902114617 22 249 0.0 0.0 0.00 0.00 0.00 96 965.4
20260902113106 22 249 0.0 0.0 0.00 0.00 0.00 96 965.3
20260902111600 22 249 0.0 0.0 0.00 0.00 0.00 95 965.2
20260902110053 22 249 0.0 0.0 0.00 0.00 0.00 96 965.2
20260902104552 22 249 0.0 0.0 0.00 0.00 0.00 95 965.2
20260902103103 22 249 0.0 0.0 0.00 0.00 0.00 95 965.1
20260902101549 22 249 0.0 0.0 0.00 0.00 0.00 95 965.1
20260902100118 22 249 0.0 0.0 0.00 0.00 0.00 95 964.9
20260902094559 22 249 0.0 0.0 0.00 0.00 0.00 95 965.0
20260902093108 22 249 0.0 0.0 0.00 0.00 0.00 95 965.1
20260902091546 22 249 0.0 0.0 0.00 0.00 0.00 95 965.0
20260902090044 22 249 0.0 0.0 0.00 0.00 0.00 95 964.8
20260902084545 23 249 0.0 0.0 0.00 0.00 0.00 94 964.6
20260902083041 23 249 0.0 0.0 0.00 0.00 0.00 94 964.5
20260902081538 23 249 0.0 0.0 0.00 0.00 0.00 94 964.4
20260902080037 23 249 0.0 0.0 0.00 0.00 0.00 94 964.3
20260902074540 23 249 0.0 0.0 0.00 0.00 0.00 93 964.3
20260902073036 23 249 0.0 0.0 0.00 0.00 0.00 93 964.3
20260902071536 23 249 0.0 0.0 0.00 0.00 0.00 93 964.2
20260902070033 23 249 0.0 0.0 0.00 0.00 0.00 93 964.2
20260902064537 23 249 0.0 0.0 0.00 0.00 0.00 92 964.2
20260902063030 24 249 0.0 0.0 0.00 0.00 0.00 91 964.2
20260902061528 24 249 0.0 0.0 0.00 0.00 0.00 91 964.2
20260902060026 25 249 0.0 0.0 0.00 0.00 0.00 89 964.4
20260902054536 25 249 0.0 0.0 0.00 0.00 0.00 88 964.4
20260902053023 25 249 0.0 0.0 0.00 0.00 0.00 87 964.3
20260902051520 25 249 0.0 0.0 0.00 0.00 0.00 84 964.4
20260902050033 26 249 0.0 0.0 0.00 0.00 0.00 83 964.4
20260902044516 26 249 0.0 1.6 0.00 0.00 0.00 83 964.2
20260902043018 26 249 0.0 0.0 0.00 0.00 0.00 81 964.3
20260902041520 27 249 0.0 0.0 0.00 0.00 0.00 79 964.4
20260902040008 27 249 0.0 3.2 0.00 0.00 0.00 78 964.4
20260902034508 27 249 0.0 1.6 0.00 0.00 0.00 78 964.4
20260902033007 27 249 0.0 1.6 0.00 0.00 0.00 78 964.3
20260902031506 27 249 0.0 0.0 0.00 0.00 0.00 77 964.3
20260902030006 27 249 0.0 0.0 0.00 0.00 0.00 76 964.3
20260902024506 28 249 0.0 1.6 0.00 0.00 0.00 75 964.3
20260902023005 28 249 0.0 1.6 0.00 0.00 0.00 74 964.2
20260902021512 28 249 0.0 0.0 0.00 0.00 0.00 73 964.3
20260902020004 28 249 0.0 0.0 0.00 0.00 0.00 72 964.3
20260902014504 28 249 0.0 0.0 0.00 0.00 0.00 71 964.1
20260902013004 29 249 0.0 0.0 0.00 0.00 0.00 70 964.1